BREEZE-KM DEB, 41723

Orbit data source: Space-Track

BREEZE-KM DEB, 41723 is space debris in LEO originally from a launch on Tue, 31 Mar 2015 UTC launched from the Plesetsk Missile And Space Complex (PKMTR). Debris objects in space refer to the collection of defunct objects orbiting the Earth. Examples of debris include non-operational satellites, rocket bodies, and fragments generated from explosions, collisions, or faulty payload assembly.

Loading next visibility...
BREEZE-KM DEB details
Identifier
41723, 2015-020L
Orbit
LEO
Last TLE update1 day ago
Origin
Flag of CISVVKO VKS (CIS)
ManufacturerKhrunichev
MissionSpacecraft
Bus & MotorUnknown
MassUnknown
Launch date (UTC)
2015-03-31 (10 years ago)
Launch vehicleUnknown
Launch site
Plesetsk Missile And Space Complex (PKMTR)
Object type
Payload
Rocket body
Debris
Shape & HBRUnknown
Radar Cross SectionSmall (<0.1 m²)

Expand to show TLE details & history

TLE from 1 day ago
0 BREEZE-KM DEB
1 41723U 15020L   24360.16444778  .00000439  00000-0  14097-2 0  9990
2 41723  82.4878 156.8097 0220012  73.1042 289.4062 12.92623702429680
Epoch: 2024-12-25T03:56Z
Definitive object data (Epoch: 2024-12-25T03:56:48.288Z)
Latitude0.00001°
Longitude3.44638°
Altitude1,241.165 km
Speed7.259 km/s
True Right ascension10h 27m 14s
True Declination0° 00' 00"
Sunlit
Object was in daylight at TLE epoch
Visualization TLE readout
Latitude-15.69084°
Longitude-175.36799°
Altitude1,393.449 km
Speed7.117 km/s
Apparent Right ascension23h 03m 40s
Apparent Declination-26° 47' 38"
Sunlit
Object is in daylight
Visualization observer readout
Local Sidereal Time11:52:16
Azimuth41.263° NE
Elevation-73.444°
Doppler factor1
Orbital elements
Apogee altitude1,457.081 km
Perigee altitude1,119.735 km
Semi-major axis7,666.545 km
Eccentricity0.0220012
Inclination82.4878°
RAAN156.8097°
Arg. of periapsis73.1042°
True anomaly287.00706°
Mean anomaly289.4062°
Eccentric anomaly288.20875°
Mean motion3.23328 °/min
BSTAR0.0014097
Orbital period111.34 mins
Loading maneuver chart data...
Loading historical data...
Loading historical data...
Loading historical data...
Loading historical data...
Loading historical data...
Loading historical data...
Loading historical data...

BREEZE-KM DEB Visibility forecast

Observer location: undefined°, undefined

Span
Click to sort rows by Start time (UTC) header in descending order
Start Az.
Max El. time (UTC)
Max El. Az.
Max El.
End time (UTC)
End Az.
12 mins2024-12-26 21:23:45.296Z11.508° NNE2024-12-26 21:29:45.296Z71.333° E29.23°2024-12-26 21:35:45.296Z132.638° SE
12 mins2024-12-26 23:16:45.296Z333.966° NNW2024-12-26 23:22:45.296Z260.448° W33.949°2024-12-26 23:28:45.296Z204.706° SW
8 mins2024-12-27 09:57:45.296Z120.57° SE2024-12-27 10:00:45.296Z88.698° E21.833°2024-12-27 10:05:45.296Z37.969° NE
11 mins2024-12-27 11:47:45.296Z209.903° SW2024-12-27 11:52:45.296Z276.712° WNW39.044°2024-12-27 11:58:45.296Z356.303° N
|